Location: *
(46.3500°N, 10.9000°E)
Time: 21:23:09
(UTC+00:00)

Explorer 7 - Pass Details

Date: 28 April 2021
Orbit: 484 x 677 km, 50.3° (Epoch: 05 May)

Event Time Altitude Azimuth Distance (km) Brightness Sun altitude
Rises 17:49:12 0° 264° (W) 2,583 11.7 4.4°
Reaches altitude 10° 17:51:22 10° 268° (W) 1,721 11.1 4.1°
Maximum altitude 17:55:12 56° 348° (NNW) 631 7.5 3.4°
Drops below altitude 10° 17:59:16 10° 67° (ENE) 1,822 9.0 2.8°
Sets 18:01:37 0° 72° (ENE) 2,752 9.9 2.4°
